EW6223 Weather Reports


time (UTC)temp
F
wind
direction
speed
knots
gust
knots
rain 1hr
in
rain 24hr
in
rain mn
in
humidity
%
barometer
mb
20260505001536 81 258 2.6 6.1 0.00 0.00 0.00 53 999.1
20260505000048 83 223 1.7 4.3 0.00 0.00 0.00 50 997.7
20260504234538 84 295 2.6 4.3 0.00 0.00 0.00 47 994.0
20260504233048 84 265 2.6 4.3 0.00 0.00 0.00 47 1004.3
20260504231534 86 255 1.7 5.2 0.00 0.00 0.00 47 1003.6
20260504230036 85 191 0.0 2.6 0.00 0.00 0.00 53 1003.9
20260504224534 84 110 0.9 3.5 0.00 0.00 0.00 56 1001.3
20260504223051 84 124 0.9 4.3 0.00 0.00 0.00 56 1004.0
20260504221531 85 83 0.9 3.5 0.00 0.00 0.00 53 1003.8
20260504220031 86 156 0.9 2.6 0.00 0.00 0.00 50 1001.2
20260504214530 84 121 0.9 3.5 0.00 0.00 0.00 49 1005.0
20260504213039 84 93 0.9 3.5 0.00 0.00 0.00 50 1005.5
20260504211532 83 75 1.7 4.3 0.00 0.00 0.00 53 1000.0
20260504210026 84 100 1.7 4.3 0.00 0.00 0.00 54 1000.3
20260504204535 84 83 1.7 4.3 0.00 0.00 0.00 56 1001.8
20260504203025 85 118 2.6 4.3 0.00 0.00 0.00 52 1003.3
20260504201521 89 140 0.9 7.0 0.00 0.00 0.00 39 1001.6
20260504200018 87 255 1.7 4.3 0.00 0.00 0.00 40 1004.1
20260504194515 87 312 2.6 4.3 0.00 0.00 0.00 41 1006.3
20260504193015 86 306 3.5 5.2 0.00 0.00 0.00 41 1003.0
20260504191513 87 233 2.6 6.1 0.00 0.00 0.00 40 1002.0
20260504190015 87 270 1.7 7.0 0.00 0.00 0.00 38 1005.5
20260504184509 86 290 2.6 5.2 0.00 0.00 0.00 38 1006.5
20260504183008 86 262 2.6 7.0 0.00 0.00 0.00 37 1006.6
20260504181512 86 255 1.7 6.1 0.00 0.00 0.00 39 1001.2
20260504180006 85 254 3.5 7.0 0.00 0.00 0.00 40 1002.3
20260504174531 85 247 2.6 6.1 0.00 0.00 0.00 41 1002.3
20260504173027 84 252 2.6 6.1 0.00 0.00 0.00 42 1007.1
20260504171655 83 172 2.6 4.3 0.00 0.00 0.00 41 1006.1
20260504090107 0 0.0 0.0 0.00 0.00 0.00 1004.9
20260504081545 0 0.0 0.0 0.00 0.00 0.00 1004.1
20260504050019 0 0.0 0.0 0.00 0.00 0.00 1000.8
20260504044514 0 0.0 0.0 0.00 0.00 0.00 1000.8
20260504043007 0 0.0 0.0 0.00 0.00 0.00 1000.8
20260504041558 0 0.0 0.0 0.00 0.00 0.00 1000.8
20260504040106 0 0.0 0.0 0.00 0.00 0.00 963.5
20260504034611 0 0.0 0.0 0.00 0.00 0.00 963.0
20260504033043 0 0.0 0.0 0.00 0.00 0.00 949.1
20260504031539 0 0.0 0.0 0.00 0.00 0.00 948.6
20260504030034 0 0.0 0.0 0.00 0.00 0.00 948.6
20260504024531 0 0.0 0.0 0.00 0.00 0.00 934.0
20260504023023 0 0.0 0.0 0.00 0.00 0.00 934.0
20260504021519 0 0.0 0.0 0.00 0.00 0.00 934.0
20260504020016 0 0.0 0.0 0.00 0.00 0.00 934.0
20260504014510 0 0.0 0.0 0.00 0.00 0.00 927.1
20260504013105 0 0.0 0.0 0.00 0.00 0.00 942.6
20260504011531 0 0.0 0.0 0.00 0.00 0.00 879.5
20260504010027 0 0.0 0.0 0.00 0.00 0.00 865.5
20260504004520 0 0.0 0.0 0.00 0.00 0.00 865.5
20260504003015 0 0.0 0.0 0.00 0.00 0.00 865.5